Weather Roundup
Issued by NWS Corpus Christi, TX

Home | Current Version | Previous Version | Text Only | Print | Product List | Glossary On
Versions: 1 2 3 4 5 6 7 8 9 10 11 12 13 14 15 16 17 18 19 20 21 22 23 24 25 26 27 28 29 30 31 32 33 34 35 36 37 38 39 40 41 42 43 44 45 46 47 48 49 50
000
ASUS44 KCRP 271310
HRRCRP

SOUTH TEXAS REGIONAL WEATHER ROUNDUP
NATIONAL WEATHER SERVICE CORPUS CHRISTI TX
800 AM CDT TUE SEP 27 2016


TXZ229>244-271400-
...CORPUS CHRISTI AREA OBSERVATIONS...

CITY           SKY/WX    TMP DP  RH WIND       PRES   REMARKS
CORPUS CHRISTI CLOUDY    71  68  90 N9        30.01R
NAS CORPUS CHR CLOUDY    72  71  97 N15       30.00R
ROCKPORT       CLOUDY    71  67  87 N9        30.00R
KINGSVILLE NAS CLOUDY    69  69 100 N9        30.02R
ALICE          CLOUDY    69  67  93 N10       30.03R
FALFURRIAS     CLOUDY    70  66  87 N6        30.02R
$$

...VICTORIA AREA OBSERVATIONS...

CITY           SKY/WX    TMP DP  RH WIND       PRES   REMARKS
VICTORIA       CLOUDY    69  66  90 N8        30.03R
BEEVILLE       CLOUDY    69  69 100 N8        30.03R
PLEASANTON     PTCLDY    68  63  83 N7        30.07S
SAN ANTONIO    CLOUDY    67  62  84 N14       30.08R
$$

...LAREDO AREA OBSERVATIONS...

CITY           SKY/WX    TMP DP  RH WIND       PRES   REMARKS
LAREDO         CLOUDY    67  65  93 NW8       30.08R
COTULLA        CLOUDY    70  62  76 N6        30.07R
DEL RIO        CLOUDY    65  58  78 NW9       30.15R
MCALLEN        CLOUDY    74  69  85 N10       30.01R
HEBBRONVILLE   CLOUDY    68  65  89 N10       30.06R
$$

...OTHER TEXAS OBSERVATIONS...

CITY           SKY/WX    TMP DP  RH WIND       PRES   REMARKS
BROWNSVILLE    MOCLDY    75  74  96 NW8       29.96R
HOUSTON        CLOUDY    72  68  87 NE6       30.02R
COL. STATION   CLEAR     67  65  93 N7        30.06S
AUSTIN         CLOUDY    69  63  81 N8        30.08R
WACO           CLOUDY    67  62  84 N7        30.10S
FORT WORTH     MOCLDY    64  55  72 N8        30.12R
WICHITA FALLS  CLOUDY    56  49  77 NW6       30.16S
LUBBOCK        MOCLDY    51  44  77 NW6       30.24R
EL PASO        CLOUDY    57  43  59 CALM      30.26R
$$

...MARINE OBSERVATIONS...

STATION/POSITION TIME  SKY/WX   TEMP    WIND        PRES    VSBY  WAVE   SWELL
                                AIR SEA DIR/SP/G                  HT/PER HT/PER
                 (UTC)          (F)     (DEG/KT/KT) (MB)    (MI)  (FT/S) (FT/S)
PORT ARANSAS     1200            72 83  360/ 12/ 14 1015.4R
BUOY 90 E PORT A 1250            81 85   10/ 16/ 17 1014.0R         4/ 5
BUOY 45 SE BAFFI 1250            80 84   10/ 16/ 17 1013.6R         4/ 6   2/12
BUOY 200 E PT IS 1250            82 87  130/ 12/ 14 1012.3R         2/ 6   2/ 6
BUOY 15 E GALVES 1250            77 85   10/ 16/ 19 1014.8R         2/ 4
$$




USA.gov is the U.S. government's official web portal to all federal, state and local government web resources and services.